timestamp,wind_dir_avg,wind_spd_max_dir,wind_spd_avg,wind_spd_gust,battery_voltage,lat,long
2017-09-03 00:00:00+00:00,14.0,11.0,8.14,9.49,12.7,47.59359,-54.27349
2017-09-03 00:10:00+00:00,7.0,12.0,8.29,9.91,12.6,47.59359,-54.27349
2017-09-03 00:20:00+00:00,359.0,3.0,12.64,15.22,12.7,47.59359,-54.27349
2017-09-03 00:30:00+00:00,9.0,11.0,7.75,9.21,12.7,47.59359,-54.27349
2017-09-03 00:40:00+00:00,6.0,13.0,10.36,15.81,12.7,47.59359,-54.27349
2017-09-03 00:50:00+00:00,7.0,5.0,9.87,11.31,12.7,47.59359,-54.27349
2017-09-03 01:00:00+00:00,22.0,21.0,10.24,13.05,12.7,47.59359,-54.27349
2017-09-03 01:10:00+00:00,5.0,8.0,8.7,9.98,12.6,47.59359,-54.27349
2017-09-03 01:20:00+00:00,4.0,12.0,8.61,11.76,12.7,47.59359,-54.27349
2017-09-03 01:30:00+00:00,11.0,11.0,9.27,11.61,12.7,47.59359,-54.27349
2017-09-03 01:40:00+00:00,355.0,358.0,8.65,9.99,12.7,47.59359,-54.27349
2017-09-03 01:50:00+00:00,348.0,347.0,8.83,10.23,12.7,47.59359,-54.27349
2017-09-03 02:00:00+00:00,343.0,347.0,7.56,9.02,12.6,47.59359,-54.27349
2017-09-03 02:10:00+00:00,350.0,345.0,8.6,10.26,12.6,47.59359,-54.27349
2017-09-03 02:20:00+00:00,359.0,358.0,8.32,9.54,12.6,47.59359,-54.27349
2017-09-03 02:30:00+00:00,358.0,2.0,7.96,9.06,12.7,47.59359,-54.27349
2017-09-03 02:40:00+00:00,358.0,353.0,10.34,11.65,12.7,47.59359,-54.27349
2017-09-03 02:50:00+00:00,357.0,0.0,9.45,11.33,12.7,47.59359,-54.27349
2017-09-03 03:00:00+00:00,352.0,345.0,9.77,11.52,12.6,47.59359,-54.27349
2017-09-03 03:10:00+00:00,357.0,351.0,10.25,11.76,12.6,47.59359,-54.27349
2017-09-03 03:20:00+00:00,3.0,7.0,9.93,11.5,12.6,47.59359,-54.27349
2017-09-03 03:30:00+00:00,26.0,46.0,9.71,12.06,12.6,47.59359,-54.27349
2017-09-03 03:40:00+00:00,11.0,17.0,9.66,11.77,12.7,47.59359,-54.27349
2017-09-03 03:50:00+00:00,359.0,359.0,7.99,9.52,12.7,47.59359,-54.27349
2017-09-03 04:00:00+00:00,347.0,349.0,7.35,8.34,12.6,47.59359,-54.27349
2017-09-03 04:10:00+00:00,1.0,0.0,8.06,8.82,12.6,47.59359,-54.27349
2017-09-03 04:20:00+00:00,351.0,335.0,6.75,7.85,12.6,47.59359,-54.27349
2017-09-03 04:30:00+00:00,331.0,331.0,7.34,9.19,12.6,47.59359,-54.27349
2017-09-03 04:40:00+00:00,322.0,322.0,5.75,7.4,12.6,47.59359,-54.27349
2017-09-03 04:50:00+00:00,343.0,348.0,7.45,8.38,12.7,47.59359,-54.27349
2017-09-03 05:00:00+00:00,352.0,351.0,8.44,9.58,12.6,47.59359,-54.27349
2017-09-03 05:10:00+00:00,359.0,358.0,9.7,10.57,12.6,47.59359,-54.27349
2017-09-03 05:20:00+00:00,358.0,2.0,8.96,10.77,12.6,47.59359,-54.27349
2017-09-03 05:30:00+00:00,356.0,356.0,8.3,10.61,12.6,47.59359,-54.27349
2017-09-03 05:40:00+00:00,2.0,359.0,8.46,9.59,12.6,47.59359,-54.27349
2017-09-03 05:50:00+00:00,3.0,7.0,9.49,11.01,12.6,47.59359,-54.27349
2017-09-03 06:00:00+00:00,357.0,354.0,8.34,10.12,12.6,47.59359,-54.27349
2017-09-03 06:10:00+00:00,355.0,351.0,7.94,10.02,12.6,47.59359,-54.27349
2017-09-03 06:20:00+00:00,2.0,3.0,8.74,10.2,12.6,47.59359,-54.27349
2017-09-03 06:30:00+00:00,358.0,4.0,10.01,11.27,12.6,47.59359,-54.27349
2017-09-03 06:40:00+00:00,350.0,355.0,9.1,10.44,12.6,47.59359,-54.27349
2017-09-03 06:50:00+00:00,356.0,2.0,7.79,9.24,12.6,47.59359,-54.27349
2017-09-03 07:00:00+00:00,348.0,342.0,7.13,8.5,12.6,47.59359,-54.27349
2017-09-03 07:10:00+00:00,355.0,355.0,7.43,9.62,12.6,47.59359,-54.27349
2017-09-03 07:20:00+00:00,346.0,350.0,8.29,10.26,12.6,47.59359,-54.27349
2017-09-03 07:30:00+00:00,359.0,1.0,6.79,7.59,12.6,47.59359,-54.27349
2017-09-03 07:40:00+00:00,358.0,359.0,8.55,10.0,12.6,47.59359,-54.27349
2017-09-03 07:50:00+00:00,3.0,358.0,8.38,9.4,12.6,47.59359,-54.27349
2017-09-03 08:00:00+00:00,6.0,1.0,8.3,9.49,12.6,47.59359,-54.27349
2017-09-03 08:10:00+00:00,2.0,0.0,7.1,8.27,12.6,47.59359,-54.27349
2017-09-03 08:20:00+00:00,354.0,345.0,7.43,8.48,12.6,47.59359,-54.27349
2017-09-03 08:30:00+00:00,327.0,332.0,5.01,5.68,12.6,47.59359,-54.27349
2017-09-03 08:40:00+00:00,346.0,349.0,5.31,6.01,12.6,47.59359,-54.27349
2017-09-03 08:50:00+00:00,348.0,353.0,6.37,7.32,12.6,47.59359,-54.27349
2017-09-03 09:00:00+00:00,340.0,337.0,6.04,7.06,12.6,47.59359,-54.27349
2017-09-03 09:10:00+00:00,351.0,348.0,5.38,6.18,12.6,47.59359,-54.27349
2017-09-03 09:20:00+00:00,353.0,359.0,6.63,7.69,12.6,47.59359,-54.27349
2017-09-03 09:30:00+00:00,345.0,343.0,6.32,7.12,12.7,47.59359,-54.27349
2017-09-03 09:40:00+00:00,358.0,352.0,6.49,8.21,12.8,47.59359,-54.27349
2017-09-03 09:50:00+00:00,9.0,4.0,4.53,5.29,13.0,47.59359,-54.27349
2017-09-03 10:00:00+00:00,13.0,13.0,6.27,6.89,13.1,47.59359,-54.27349
2017-09-03 10:10:00+00:00,26.0,33.0,6.83,9.04,13.3,47.59359,-54.27349
2017-09-03 10:20:00+00:00,11.0,14.0,6.93,8.23,13.8,47.59359,-54.27349
2017-09-03 10:30:00+00:00,2.0,0.0,6.97,8.11,14.1,47.59359,-54.27349
2017-09-03 10:40:00+00:00,353.0,352.0,7.26,8.0,14.3,47.59359,-54.27349
2017-09-03 10:50:00+00:00,4.0,4.0,5.59,6.71,13.7,47.59359,-54.27349
2017-09-03 11:00:00+00:00,9.0,13.0,5.31,6.06,14.2,47.59359,-54.27349
2017-09-03 11:10:00+00:00,16.0,13.0,4.01,4.85,13.8,47.59359,-54.27349
2017-09-03 11:20:00+00:00,7.0,6.0,6.4,7.84,13.7,47.59359,-54.27349
2017-09-03 11:30:00+00:00,2.0,358.0,7.08,7.64,13.8,47.59359,-54.27349
2017-09-03 11:40:00+00:00,6.0,2.0,6.04,7.12,13.8,47.59359,-54.27349
2017-09-03 11:50:00+00:00,16.0,18.0,5.74,6.37,13.7,47.59359,-54.27349
2017-09-03 12:00:00+00:00,10.0,10.0,7.58,8.5,13.7,47.59359,-54.27349
2017-09-03 12:10:00+00:00,18.0,14.0,7.99,9.26,13.7,47.59359,-54.27349
2017-09-03 12:20:00+00:00,11.0,14.0,8.2,9.26,13.8,47.59359,-54.27349
2017-09-03 12:30:00+00:00,11.0,10.0,6.91,7.75,13.8,47.59359,-54.27349
2017-09-03 12:40:00+00:00,22.0,31.0,4.7,5.72,13.8,47.59359,-54.27349
2017-09-03 12:50:00+00:00,16.0,18.0,5.11,5.74,13.8,47.59359,-54.27349
2017-09-03 13:00:00+00:00,21.0,26.0,4.54,5.22,13.8,47.59359,-54.27349
2017-09-03 13:10:00+00:00,23.0,28.0,4.13,4.81,13.9,47.59359,-54.27349
2017-09-03 13:20:00+00:00,25.0,17.0,4.1,4.9,13.8,47.59359,-54.27349
2017-09-03 13:30:00+00:00,7.0,6.0,3.62,3.88,13.8,47.59359,-54.27349
2017-09-03 13:40:00+00:00,30.0,35.0,4.52,5.13,13.8,47.59359,-54.27349
2017-09-03 13:50:00+00:00,84.0,89.0,3.88,4.54,13.8,47.59359,-54.27349
2017-09-03 14:00:00+00:00,83.0,83.0,3.57,4.04,13.8,47.59359,-54.27349
2017-09-03 14:10:00+00:00,127.0,135.0,2.66,3.57,13.9,47.59359,-54.27349
2017-09-03 14:20:00+00:00,120.0,130.0,2.77,3.85,13.8,47.59359,-54.27349
2017-09-03 14:30:00+00:00,133.0,146.0,2.67,3.31,13.9,47.59359,-54.27349
2017-09-03 14:40:00+00:00,134.0,129.0,2.5,2.87,13.8,47.59359,-54.27349
2017-09-03 14:50:00+00:00,147.0,142.0,1.49,1.78,13.8,47.59359,-54.27349
2017-09-03 15:00:00+00:00,198.0,200.0,1.38,1.55,13.8,47.59359,-54.27349
2017-09-03 15:10:00+00:00,145.0,144.0,1.74,1.97,13.9,47.59359,-54.27349
2017-09-03 15:20:00+00:00,162.0,161.0,0.96,1.2,13.8,47.59359,-54.27349
2017-09-03 15:30:00+00:00,212.0,222.0,1.43,1.64,13.8,47.59359,-54.27349
2017-09-03 15:40:00+00:00,230.0,230.0,2.01,2.18,13.8,47.59359,-54.27349
2017-09-03 15:50:00+00:00,212.0,213.0,2.08,2.32,13.8,47.59359,-54.27349
2017-09-03 16:00:00+00:00,191.0,189.0,2.73,3.48,13.8,47.59359,-54.27349
2017-09-03 16:10:00+00:00,217.0,219.0,2.85,3.16,13.6,47.59359,-54.27349
2017-09-03 16:20:00+00:00,220.0,222.0,3.7,4.02,13.8,47.59359,-54.27349
2017-09-03 16:30:00+00:00,218.0,228.0,3.83,4.39,13.8,47.59359,-54.27349
2017-09-03 16:40:00+00:00,222.0,220.0,7.87,8.41,13.6,47.59359,-54.27349
2017-09-03 16:50:00+00:00,223.0,225.0,7.77,8.32,13.8,47.59359,-54.27349
2017-09-03 17:00:00+00:00,222.0,221.0,9.41,10.07,13.8,47.59359,-54.27349
2017-09-03 17:10:00+00:00,224.0,228.0,8.57,9.37,13.7,47.59359,-54.27349
2017-09-03 17:20:00+00:00,224.0,225.0,9.21,10.07,13.8,47.59359,-54.27349
2017-09-03 17:30:00+00:00,219.0,218.0,7.86,8.78,13.8,47.59359,-54.27349
2017-09-03 17:40:00+00:00,226.0,229.0,7.87,8.74,13.7,47.59359,-54.27349
2017-09-03 17:50:00+00:00,218.0,219.0,7.82,8.38,13.7,47.59359,-54.27349
2017-09-03 18:00:00+00:00,221.0,223.0,7.28,8.29,13.6,47.59359,-54.27349
2017-09-03 18:10:00+00:00,218.0,220.0,7.74,8.62,13.9,47.59359,-54.27349
2017-09-03 18:20:00+00:00,218.0,217.0,7.4,8.04,14.3,47.59359,-54.27349
2017-09-03 18:30:00+00:00,219.0,221.0,7.43,8.12,14.0,47.59359,-54.27349
2017-09-03 18:40:00+00:00,220.0,224.0,8.34,9.28,13.7,47.59359,-54.27349
2017-09-03 18:50:00+00:00,225.0,235.0,8.71,10.56,14.3,47.59359,-54.27349
2017-09-03 19:00:00+00:00,230.0,233.0,7.11,8.06,14.2,47.59359,-54.27349
2017-09-03 19:10:00+00:00,224.0,223.0,7.87,8.54,14.1,47.59359,-54.27349
2017-09-03 19:20:00+00:00,225.0,224.0,7.69,8.54,14.2,47.59359,-54.27349
2017-09-03 19:30:00+00:00,226.0,227.0,6.84,7.66,14.1,47.59359,-54.27349
2017-09-03 19:40:00+00:00,220.0,219.0,6.64,7.52,14.0,47.59359,-54.27349
2017-09-03 19:50:00+00:00,219.0,219.0,6.64,7.19,14.0,47.59359,-54.27349
2017-09-03 20:00:00+00:00,218.0,226.0,6.85,7.46,13.8,47.59359,-54.27349
2017-09-03 20:10:00+00:00,218.0,219.0,5.6,6.54,13.7,47.59359,-54.27349
2017-09-03 20:20:00+00:00,226.0,225.0,6.42,6.98,13.8,47.59359,-54.27349
2017-09-03 20:30:00+00:00,225.0,222.0,6.03,6.47,13.8,47.59359,-54.27349
2017-09-03 20:40:00+00:00,234.0,236.0,6.06,6.75,13.8,47.59359,-54.27349
2017-09-03 20:50:00+00:00,232.0,234.0,5.74,6.41,13.7,47.59359,-54.27349
2017-09-03 21:00:00+00:00,233.0,234.0,4.44,4.8,13.6,47.59359,-54.27349
2017-09-03 21:10:00+00:00,231.0,230.0,4.15,4.63,13.4,47.59359,-54.27349
2017-09-03 21:20:00+00:00,235.0,234.0,3.82,4.2,13.4,47.59359,-54.27349
2017-09-03 21:30:00+00:00,239.0,243.0,3.56,4.22,13.4,47.59359,-54.27349
2017-09-03 21:40:00+00:00,258.0,262.0,3.42,3.96,13.4,47.59359,-54.27349
2017-09-03 21:50:00+00:00,293.0,295.0,3.66,3.83,13.4,47.59359,-54.27349
2017-09-03 22:00:00+00:00,225.0,227.0,2.99,3.82,13.2,47.59359,-54.27349
2017-09-03 22:10:00+00:00,256.0,256.0,2.87,3.59,13.0,47.59359,-54.27349
2017-09-03 22:20:00+00:00,263.0,263.0,2.12,2.4,13.0,47.59359,-54.27349
2017-09-03 22:30:00+00:00,225.0,225.0,1.83,1.95,13.0,47.59359,-54.27349
2017-09-03 22:40:00+00:00,251.0,252.0,1.35,1.53,13.0,47.59359,-54.27349
2017-09-03 22:50:00+00:00,228.0,229.0,1.77,2.07,12.9,47.59359,-54.27349
2017-09-03 23:00:00+00:00,224.0,223.0,2.02,2.29,12.8,47.59359,-54.27349
2017-09-03 23:10:00+00:00,245.0,253.0,4.0,4.75,12.7,47.59359,-54.27349
2017-09-03 23:20:00+00:00,253.0,254.0,3.43,3.81,12.7,47.59359,-54.27349
2017-09-03 23:30:00+00:00,257.0,257.0,3.83,4.1,12.7,47.59359,-54.27349
2017-09-03 23:40:00+00:00,246.0,248.0,3.49,4.17,12.7,47.59359,-54.27349
2017-09-03 23:50:00+00:00,224.0,228.0,2.98,3.34,12.8,47.59359,-54.27349
